Weather History for New Richmond, WI

Change the Weather History Date:

Friday, May 3, 2013

  Actual Average (KMSP) Record (KMSP)
Temperature  
Mean Temperature 32 °F 55 °F  
Max Temperature 33 °F 66 °F 93 °F (1949)
Min Temperature 32 °F 45 °F 18 °F (1967)
Degree Days  
Heating Degree Days 32 10  
Month to date heating degree days 32  
Since 1 July heating degree days 7350  
Cooling Degree Days 0 1  
Month to date cooling degree days 1  
Year to date cooling degree days 6  
Moisture  
Dew Point 31 °F    
Average Humidity 95    
Maximum Humidity 100    
Minimum Humidity 81    
Precipitation  
Precipitation 0.16 in 0.11 in 1.72 in (1912)
Month to date precipitation 0.33  
Year to date precipitation 6.55  
Snow  
Snow 0.00 in 0.00 in 0.50 in (2013)
Month to date snowfall 0.0  
Since 1 July snowfall 54.4  
Snow Depth -    
Sea Level Pressure  
Sea Level Pressure 30.24 in    
Wind  
Wind Speed 10 mph (NNE)    
Max Wind Speed 18 mph    
Max Gust Speed 24 mph    
Visibility 8 miles    
Events Rain , Snow    
T = Trace of Precipitation, MM = Missing Value Source: NWS Daily Summary

Daily Weather History Graph

Daily Weather History Graph

Search for Another Location

Airport:

Trip Planner

Search our weather history database for the weather conditions in past years. The results will help you decide how hot, cold, wet, or windy it might be!

Date:

Astronomy

May. 03, 2013 Rise Set
Actual Time 5:55 AM CDT 8:18 PM CDT
Civil Twilight 5:23 AM CDT 8:51 PM CDT
Nautical Twilight 4:42 AM CDT 9:32 PM CDT
Astronomical Twilight 3:56 AM CDT 10:19 PM CDT
Moon 2:38 AM CDT (5/3) 1:57 PM CDT (5/3)
Length of Visible Light 15h 28m
Length of Day
14h 23m
Last Quarter, 37% of the Moon is Illuminated
May 3
Last Quarter
May 9
New
May 17
First Quarter
May 24
Full
May 31
Last Quarter

Hourly Weather History & Observations

Time (CDT) Temp. Windchill Dew Point Humidity Pressure Visibility Wind Dir Wind Speed Gust Speed Precip Events Conditions
12:15 AM 33.8 °F 28.6 °F 28.4 °F 81% 30.40 in 10.0 mi NNE 5.8 mph - N/A   Clear
12:35 AM 33.8 °F 28.6 °F 28.4 °F 81% 30.39 in 10.0 mi NNE 5.8 mph - N/A   Scattered Clouds
12:55 AM 32.0 °F 28.7 °F 28.4 °F 87% 30.39 in 10.0 mi NNE 3.5 mph - N/A   Mostly Cloudy
1:15 AM 32.0 °F 26.4 °F 28.4 °F 87% 30.39 in 10.0 mi North 5.8 mph - N/A   Mostly Cloudy
1:35 AM 32.0 °F 24.2 °F 28.4 °F 87% 30.38 in 10.0 mi North 9.2 mph - N/A   Overcast
1:55 AM 32.0 °F 23.6 °F 28.4 °F 87% 30.38 in 10.0 mi North 10.4 mph - N/A   Overcast
2:15 AM 32.0 °F 24.2 °F 28.4 °F 87% 30.37 in 10.0 mi North 9.2 mph - N/A   Overcast
2:35 AM 32.0 °F 24.8 °F 28.4 °F 87% 30.36 in 10.0 mi North 8.1 mph - N/A   Overcast
2:55 AM 32.0 °F 23.6 °F 28.4 °F 87% 30.35 in 10.0 mi North 10.4 mph - N/A   Overcast
3:15 AM 32.0 °F 23.6 °F 28.4 °F 87% 30.35 in 7.0 mi North 10.4 mph - N/A Snow Light Snow
3:35 AM 32.0 °F 24.2 °F 28.4 °F 87% 30.35 in 10.0 mi North 9.2 mph - N/A   Overcast
3:55 AM 32.0 °F 23.6 °F 28.4 °F 87% 30.34 in 10.0 mi North 10.4 mph - N/A   Overcast
4:15 AM 32.0 °F 24.2 °F 28.4 °F 87% 30.34 in 10.0 mi North 9.2 mph - N/A Snow Light Snow
4:35 AM 32.0 °F 24.8 °F 30.2 °F 93% 30.33 in 3.0 mi North 8.1 mph - N/A Snow Light Snow
4:55 AM 32.0 °F 24.2 °F 32.0 °F 100% 30.32 in 3.0 mi North 9.2 mph - N/A Snow Light Snow
5:15 AM 32.0 °F 24.2 °F 32.0 °F 100% 30.31 in 7.0 mi North 9.2 mph - N/A Snow Light Snow
5:35 AM 32.0 °F 24.2 °F 30.2 °F 93% 30.31 in 5.0 mi North 9.2 mph - N/A Snow Light Snow
5:55 AM 32.0 °F 23.0 °F 30.2 °F 93% 30.30 in 7.0 mi North 11.5 mph - N/A Snow Light Snow
6:15 AM 32.0 °F 23.6 °F 30.2 °F 93% 30.30 in 10.0 mi North 10.4 mph - N/A   Overcast
6:35 AM 32.0 °F 23.6 °F 30.2 °F 93% 30.30 in 10.0 mi North 10.4 mph - N/A   Overcast
6:55 AM 32.0 °F 23.6 °F 30.2 °F 93% 30.30 in 4.0 mi North 10.4 mph - N/A Snow Light Snow
7:15 AM 32.0 °F 22.5 °F 30.2 °F 93% 30.29 in 7.0 mi North 12.7 mph - N/A   Overcast
7:35 AM 32.0 °F 23.0 °F 30.2 °F 93% 30.29 in 4.0 mi North 11.5 mph 17.3 mph N/A Snow Light Snow
7:55 AM 32.0 °F 22.1 °F 30.2 °F 93% 30.28 in 2.5 mi North 13.8 mph 17.3 mph N/A Snow Light Snow
8:15 AM 32.0 °F 22.5 °F 30.2 °F 93% 30.29 in 10.0 mi North 12.7 mph - N/A   Overcast
8:35 AM 32.0 °F 22.1 °F 30.2 °F 93% 30.28 in 2.5 mi NNE 13.8 mph 17.3 mph N/A Snow Light Snow
8:55 AM 32.0 °F 22.5 °F 30.2 °F 93% 30.28 in 5.0 mi North 12.7 mph - N/A   Overcast
9:15 AM 32.0 °F 22.1 °F 30.2 °F 93% 30.27 in 10.0 mi North 13.8 mph - N/A   Overcast
9:35 AM 32.0 °F 21.6 °F 30.2 °F 93% 30.27 in 4.0 mi NNE 15.0 mph 18.4 mph N/A   Overcast
9:55 AM 32.0 °F 22.5 °F 30.2 °F 93% 30.25 in 1.8 mi NNE 12.7 mph - N/A Snow Light Snow
10:15 AM 32.0 °F 23.6 °F 30.2 °F 93% 30.25 in 2.0 mi NNE 10.4 mph 19.6 mph 0.01 in Snow Light Snow
10:35 AM 32.0 °F 21.2 °F 30.2 °F 93% 30.24 in 7.0 mi NNE 16.1 mph 23.0 mph 0.01 in Snow Light Snow
10:55 AM 32.0 °F 20.8 °F 30.2 °F 93% 30.24 in 7.0 mi NNE 17.3 mph 23.0 mph 0.01 in Rain Light Rain
11:15 AM 32.0 °F 21.2 °F 30.2 °F 93% 30.24 in 7.0 mi NNE 16.1 mph 24.2 mph N/A Rain Light Rain
11:35 AM 32.0 °F 20.8 °F 30.2 °F 93% 30.25 in 7.0 mi NNE 17.3 mph 23.0 mph N/A Rain Light Rain
11:55 AM 32.0 °F 22.1 °F 30.2 °F 93% 30.24 in 5.0 mi North 13.8 mph - N/A Rain Light Rain
12:15 PM 32.0 °F 22.1 °F 30.2 °F 93% 30.23 in 7.0 mi NNE 13.8 mph - 0.02 in   Overcast
12:35 PM 32.0 °F 24.2 °F 32.0 °F 100% 30.23 in 7.0 mi NNE 9.2 mph - 0.02 in Rain Light Rain
12:55 PM 32.0 °F 22.1 °F 32.0 °F 100% 30.22 in 4.0 mi NNE 13.8 mph 18.4 mph 0.02 in   Light Drizzle
1:15 PM 32.0 °F 22.5 °F 32.0 °F 100% 30.21 in 5.0 mi NNE 12.7 mph - N/A   Overcast
1:35 PM 32.0 °F 20.8 °F 30.2 °F 93% 30.20 in 10.0 mi NNE 17.3 mph 23.0 mph N/A   Overcast
1:55 PM 32.0 °F 22.1 °F 30.2 °F 93% 30.19 in 10.0 mi NNE 13.8 mph 20.7 mph N/A   Light Drizzle
2:15 PM 32.0 °F 21.2 °F 30.2 °F 93% 30.19 in 7.0 mi NNE 16.1 mph - N/A Rain Light Rain
2:35 PM 32.0 °F 21.2 °F 30.2 °F 93% 30.19 in 7.0 mi NNE 16.1 mph 24.2 mph N/A Rain Light Rain
2:55 PM 32.0 °F 22.1 °F 30.2 °F 93% 30.19 in 7.0 mi NNE 13.8 mph 23.0 mph 0.01 in Rain Light Rain
3:15 PM 32.0 °F 22.5 °F 30.2 °F 93% 30.19 in 10.0 mi NNE 12.7 mph 21.9 mph 0.01 in Rain Light Rain
3:35 PM 32.0 °F 23.0 °F 32.0 °F 100% 30.18 in 7.0 mi NNE 11.5 mph 17.3 mph 0.01 in Rain Light Rain
3:55 PM 32.0 °F 23.0 °F 32.0 °F 100% 30.17 in 4.0 mi NNE 11.5 mph - 0.02 in Rain Light Rain
4:15 PM 32.0 °F 22.5 °F 32.0 °F 100% 30.16 in 4.0 mi NNE 12.7 mph - 0.01 in   Overcast
4:35 PM 32.0 °F 23.0 °F 32.0 °F 100% 30.16 in 4.0 mi NNE 11.5 mph - 0.03 in Rain Light Rain
4:55 PM 32.0 °F 23.6 °F 32.0 °F 100% 30.16 in 5.0 mi NNE 10.4 mph - 0.04 in Rain Light Rain
5:15 PM 32.0 °F 23.6 °F 32.0 °F 100% 30.16 in 5.0 mi NNE 10.4 mph - 0.01 in Rain Light Rain
5:35 PM 32.0 °F 20.5 °F 32.0 °F 100% 30.16 in 7.0 mi NNE 18.4 mph 23.0 mph 0.02 in Rain Light Rain
5:55 PM 32.0 °F 22.5 °F 32.0 °F 100% 30.17 in 5.0 mi NNE 12.7 mph 17.3 mph 0.03 in Rain Light Rain
6:15 PM 32.0 °F 24.2 °F 32.0 °F 100% 30.17 in 7.0 mi NNE 9.2 mph - 0.01 in Rain Light Rain
6:35 PM 32.0 °F 24.2 °F 32.0 °F 100% 30.18 in 7.0 mi NNE 9.2 mph - 0.02 in Rain Light Rain
6:55 PM 32.0 °F 24.8 °F 32.0 °F 100% 30.17 in 7.0 mi NNE 8.1 mph - 0.02 in Rain Light Rain
7:15 PM 32.0 °F 23.6 °F 32.0 °F 100% 30.17 in 10.0 mi NNE 10.4 mph - 0.01 in   Light Drizzle
7:35 PM 32.0 °F 23.6 °F 32.0 °F 100% 30.17 in 10.0 mi NNE 10.4 mph - 0.01 in   Light Drizzle
7:55 PM 32.0 °F 21.6 °F 32.0 °F 100% 30.15 in 10.0 mi NNE 15.0 mph - 0.01 in   Light Drizzle
8:15 PM 32.0 °F 23.0 °F 32.0 °F 100% 30.16 in 10.0 mi NNE 11.5 mph - N/A   Light Drizzle
8:35 PM 32.0 °F 22.5 °F 32.0 °F 100% 30.16 in 10.0 mi NNE 12.7 mph - N/A   Light Drizzle
8:55 PM 32.0 °F 22.1 °F 32.0 °F 100% 30.16 in 10.0 mi NNE 13.8 mph - N/A   Light Drizzle
9:15 PM 32.0 °F 23.0 °F 32.0 °F 100% 30.17 in 10.0 mi NNE 11.5 mph - N/A   Light Drizzle
9:35 PM 32.0 °F 24.2 °F 32.0 °F 100% 30.17 in 10.0 mi NE 9.2 mph - N/A   Light Drizzle
9:55 PM 32.0 °F 24.2 °F 32.0 °F 100% 30.16 in 10.0 mi NNE 9.2 mph - N/A   Light Drizzle
10:15 PM 32.0 °F 23.0 °F 32.0 °F 100% 30.15 in 10.0 mi NNE 11.5 mph - N/A   Light Drizzle
10:35 PM 32.0 °F 22.5 °F 32.0 °F 100% 30.15 in 10.0 mi NNE 12.7 mph - N/A   Light Drizzle
10:55 PM 32.0 °F 23.0 °F 32.0 °F 100% 30.15 in 10.0 mi NNE 11.5 mph - N/A   Light Drizzle
11:15 PM 32.0 °F 23.0 °F 32.0 °F 100% 30.15 in 10.0 mi NE 11.5 mph - N/A   Light Drizzle
11:35 PM 32.0 °F 23.6 °F 32.0 °F 100% 30.15 in 10.0 mi NNE 10.4 mph - N/A   Overcast
11:55 PM 32.0 °F 23.0 °F 32.0 °F 100% 30.14 in 10.0 mi NNE 11.5 mph - N/A   Overcast